This is the latest recevied weather packets stored in our database for station/object EA3HRE-10. If no packets are shown the sender has not sent any weather packets the latest 10 day(s).
| Time | Temp. | Humidity | Pressure | Rain* | Wind** | Luminosity | Snow |
|---|---|---|---|---|---|---|---|
| 1777942261 | 21.67° C | 53% | 1012.5 hPa | - | - | - | - |
| 1777941361 | 22.22° C | 53% | 1012.5 hPa | - | - | - | - |
| 1777940461 | 22.22° C | 52% | 1012.5 hPa | - | - | - | - |
| 1777939561 | 22.22° C | 52% | 1012.4 hPa | - | - | - | - |
| 1777938661 | 22.22° C | 51% | 1012.5 hPa | - | - | - | - |
| 1777937760 | 22.78° C | 51% | 1012.6 hPa | - | - | - | - |
| 1777936860 | 22.78° C | 51% | 1012.7 hPa | - | - | - | - |
| 1777935960 | 22.78° C | 50% | 1012.9 hPa | - | - | - | - |
| 1777935060 | 22.78° C | 50% | 1012.8 hPa | - | - | - | - |
| 1777934159 | 22.78° C | 50% | 1012.5 hPa | - | - | - | - |
| 1777933259 | 23.33° C | 50% | 1012.6 hPa | - | - | - | - |
| 1777932359 | 23.33° C | 49% | 1012.4 hPa | - | - | - | - |
| 1777931459 | 23.33° C | 48% | 1012.6 hPa | - | - | - | - |
| 1777930558 | 23.89° C | 49% | 1012.8 hPa | - | - | - | - |
| 1777929658 | 23.89° C | 48% | 1012.8 hPa | - | - | - | - |
| 1777928758 | 23.89° C | 47% | 1012.9 hPa | - | - | - | - |
| 1777927858 | 24.44° C | 46% | 1012.9 hPa | - | - | - | - |
| 1777926958 | 24.44° C | 46% | 1012.6 hPa | - | - | - | - |
| 1777926070 | 25° C | 45% | 1012.4 hPa | - | - | - | - |
| 1777926058 | 25° C | 45% | 1012.4 hPa | - | - | - | - |
| 1777925158 | 25° C | 45% | 1012.2 hPa | - | - | - | - |
| 1777924258 | 25° C | 46% | 1012.2 hPa | - | - | - | - |
| 1777923370 | 24.44° C | 46% | 1012.3 hPa | - | - | - | - |
| 1777923358 | 24.44° C | 46% | 1012.3 hPa | - | - | - | - |
| 1777922470 | 24.44° C | 47% | 1013 hPa | - | - | - | - |
* Rain since midnight (hover to see other rain measurements)
** Current wind speed in m/s (hover to see current wind gust speed)